TimeCST,TemperatureF,Dew PointF,Humidity,Sea Level PressureIn,VisibilityMPH,Wind Direction,Wind SpeedMPH,Gust SpeedMPH,PrecipitationIn,Events,Conditions,WindDirDegrees,DateUTC
12:16 AM,15.8,10.4,79,29.92,6.0,SW,3.5,-,N/A,,Haze,230,2013-01-06 06:16:00
12:56 AM,18.0,12.0,78,29.97,6.0,WSW,5.8,-,N/A,,Haze,250,2013-01-06 06:56:00
1:08 AM,17.6,12.2,79,29.93,6.0,WSW,5.8,-,N/A,,Haze,240,2013-01-06 07:08:00
2:56 AM,21.0,15.1,78,30.02,7.0,WNW,5.8,-,N/A,,Overcast,290,2013-01-06 08:56:00
3:56 AM,21.9,17.1,82,30.03,8.0,WNW,5.8,-,N/A,,Overcast,290,2013-01-06 09:56:00
4:56 AM,21.9,17.1,82,30.04,8.0,WNW,6.9,-,N/A,,Overcast,290,2013-01-06 10:56:00
5:14 AM,21.2,15.8,80,30.01,8.0,West,6.9,-,N/A,,Overcast,280,2013-01-06 11:14:00
5:56 AM,21.0,17.1,85,30.08,10.0,West,6.9,-,N/A,,Overcast,270,2013-01-06 11:56:00
6:56 AM,21.0,16.0,81,30.12,10.0,NW,6.9,-,N/A,,Overcast,310,2013-01-06 12:56:00
7:56 AM,19.9,14.0,78,30.15,10.0,NNW,3.5,-,N/A,,Mostly Cloudy,330,2013-01-06 13:56:00
8:56 AM,19.0,14.0,81,30.18,10.0,NW,4.6,-,N/A,,Overcast,310,2013-01-06 14:56:00
9:56 AM,19.9,12.9,74,30.22,10.0,NNW,6.9,-,N/A,,Overcast,330,2013-01-06 15:56:00
10:56 AM,19.9,12.9,74,30.21,10.0,Calm,Calm,-,N/A,,Partly Cloudy,0,2013-01-06 16:56:00
11:56 AM,21.0,12.9,71,30.21,10.0,West,6.9,-,N/A,,Clear,260,2013-01-06 17:56:00
12:56 PM,19.9,12.0,71,30.20,10.0,WSW,8.1,-,N/A,,Clear,240,2013-01-06 18:56:00
2:56 PM,21.0,10.9,65,30.22,10.0,West,6.9,-,N/A,,Clear,260,2013-01-06 20:56:00
3:56 PM,21.0,10.0,63,30.24,10.0,WSW,5.8,-,N/A,,Clear,250,2013-01-06 21:56:00
4:56 PM,19.9,10.0,65,30.22,10.0,SW,3.5,-,N/A,,Clear,220,2013-01-06 22:56:00
5:56 PM,17.1,9.0,71,30.23,10.0,SSW,3.5,-,N/A,,Clear,200,2013-01-06 23:56:00
6:56 PM,12.9,8.1,81,30.24,10.0,SSW,5.8,-,N/A,,Clear,200,2013-01-07 00:56:00
7:56 PM,15.1,9.0,77,30.23,10.0,SSW,5.8,-,N/A,,Clear,210,2013-01-07 01:56:00
8:56 PM,12.9,8.1,81,30.22,10.0,Calm,Calm,-,N/A,,Clear,0,2013-01-07 02:56:00
9:56 PM,10.9,6.1,81,30.20,10.0,South,3.5,-,N/A,,Clear,190,2013-01-07 03:56:00
10:56 PM,12.9,6.1,74,30.18,10.0,South,5.8,-,N/A,,Clear,180,2013-01-07 04:56:00
11:56 PM,12.0,6.1,77,30.16,10.0,South,3.5,-,N/A,,Clear,190,2013-01-07 05:56:00